This demonstration page uses our WeatherBlox Daily Observations layout. Learn more.

Left ArrowRight Arrow

38.20091, -84.87328

Hourly Observations for January 5, 2016

Temp ( °F °C ) Dew Point ( °F °C ) Humidity (%) Winds ( mph kmh ) Pressure ( in mb ) Visibility ( mi km ) Precip ( " mm )
12:53 am 00:53 Clear 26 -3.3 18 -7.8 71 71 NE 6 9 30.53 1034 10 16 0.00 0.00
1:53 am 01:53 Clear 25 -3.9 17 -8.3 72 72 NE 7 11 30.54 1034 10 16 0.00 0.00
2:53 am 02:53 Clear 23 -5 17 -8.3 78 78 NE 7 11 30.54 1034 10 16 0.00 0.00
3:53 am 03:53 Clear 22 -5.6 16 -8.9 78 78 NE 7 11 30.55 1035 10 16 0.00 0.00
4:53 am 04:53 Clear 21 -6.1 15 -9.4 78 78 NE 3 6 30.57 1035 10 16 0.00 0.00
5:53 am 05:53 Clear 20 -6.7 14 -10 78 78 ENE 6 9 30.59 1036 10 16 0.00 0.00
6:53 am 06:53 Clear 19 -7.2 14 -10 81 81 NE 3 6 30.60 1036 10 16 0.00 0.00
7:53 am 07:53 Clear 18 -7.8 13 -10.6 81 81 E 6 9 30.61 1037 10 16 0.00 0.00
8:53 am 08:53 Sunny 21 -6.1 14 -10 74 74 ENE 7 11 30.62 1037 10 16 0.00 0.00
9:53 am 09:53 Sunny 23 -5 15 -9.4 72 72 E 8 13 30.63 1037 10 16 0.00 0.00
10:53 am 10:53 Sunny 26 -3.3 16 -8.9 66 66 E 8 13 30.64 1038 10 16 0.00 0.00
11:53 am 11:53 Sunny 28 -2.2 16 -8.9 60 60 VRB 5 7 30.62 1037 10 16 0.00 0.00
12:53 pm 12:53 Sunny 32 0 15 -9.4 50 50 VRB 7 11 30.58 1036 10 16 0.00 0.00
1:53 pm 13:53 Sunny 33 0.6 13 -10.6 43 43 VRB 6 9 30.54 1034 10 16 0.00 0.00
2:53 pm 14:53 Sunny 34 1.1 14 -10 44 44 ENE 8 13 30.51 1033 10 16 0.00 0.00
3:53 pm 15:53 Sunny 35 1.7 13 -10.6 40 40 ESE 9 15 30.50 1033 10 16 0.00 0.00
4:53 pm 16:53 Sunny 33 0.6 13 -10.6 43 43 E 10 17 30.49 1033 10 16 0.00 0.00
5:53 pm 17:53 Clear 29 -1.7 14 -10 54 54 ENE 5 7 30.49 1032 10 16 0.00 0.00
6:53 pm 18:53 Clear 28 -2.2 14 -10 56 56 ENE 7 11 30.49 1032 10 16 0.00 0.00
7:53 pm 19:53 Clear 27 -2.8 13 -10.6 55 55 E 3 6 30.49 1032 10 16 0.00 0.00
8:53 pm 20:53 Clear 25 -3.9 13 -10.6 60 60 E 5 7 30.48 1032 10 16 0.00 0.00
9:53 pm 21:53 Clear 25 -3.9 13 -10.6 60 60 E 5 7 30.48 1032 10 16 0.00 0.00
10:53 pm 22:53 Clear 22 -5.6 13 -10.6 68 68 Calm 30.47 1032 10 16 0.00 0.00
11:53 pm 23:53 Clear 20 -6.7 13 -10.6 74 74 Calm 30.46 1032 10 16 0.00 0.00

Powered by AerisWeather